RVD NFFN-NFFN

Flight info

Callsign RVD
Flight time 1h 3m
Altitude 3000
Route ECHO MI
Aircraft C172/L-SFG/C

Departure

Time 2026-05-06 09:23
Airport Nadi International Airport (NFFN)

Arrival

Time 2026-05-06 10:26
Airport Nadi International Airport (NFFN)
Time Latitude Longitude Altitude Speed Heading
2026-05-06 09:06 -17.97481 178.37776 9124 ft 97 kts 290°
2026-05-06 09:06 -17.97245 178.37112 9248 ft 97 kts 290°
2026-05-06 09:06 -17.97018 178.36447 9373 ft 96 kts 288°
2026-05-06 09:07 -17.96875 178.36002 9387 ft 103 kts 288°
2026-05-06 09:07 -17.96625 178.35214 9272 ft 119 kts 288°
2026-05-06 09:07 -17.96270 178.34064 9112 ft 128 kts 287°
2026-05-06 09:07 -17.96002 178.33173 8964 ft 126 kts 288°
2026-05-06 09:08 -17.95746 178.32323 8784 ft 119 kts 287°
2026-05-06 09:08 -17.95499 178.31503 8607 ft 116 kts 287°
2026-05-06 09:08 -17.95260 178.30716 8435 ft 114 kts 288°
2026-05-06 09:08 -17.95003 178.29915 8189 ft 118 kts 289°
2026-05-06 09:09 -17.94822 178.29373 8088 ft 115 kts 289°
2026-05-06 09:09 -17.94482 178.28361 8073 ft 112 kts 289°
2026-05-06 09:09 -17.94220 178.27579 8076 ft 116 kts 289°
2026-05-06 09:09 -17.93947 178.26767 8076 ft 119 kts 289°
2026-05-06 09:10 -17.93672 178.25946 8075 ft 120 kts 289°
2026-05-06 09:10 -17.93392 178.25113 8075 ft 121 kts 289°
2026-05-06 09:10 -17.93116 178.24291 8075 ft 121 kts 289°
2026-05-06 09:10 -17.92834 178.23450 8075 ft 121 kts 289°
2026-05-06 09:11 -17.92553 178.22612 8075 ft 121 kts 289°
2026-05-06 09:11 -17.92279 178.21793 8075 ft 121 kts 289°
2026-05-06 09:11 -17.92000 178.20961 8075 ft 121 kts 289°
2026-05-06 09:11 -17.91720 178.20125 8075 ft 121 kts 289°
2026-05-06 09:12 -17.91441 178.19290 8075 ft 121 kts 289°
2026-05-06 09:12 -17.91200 178.18544 8075 ft 121 kts 288°
2026-05-06 09:12 -17.90926 178.17677 8075 ft 121 kts 288°
2026-05-06 09:12 -17.90660 178.16836 8075 ft 121 kts 288°
2026-05-06 09:13 -17.90408 178.16036 8075 ft 121 kts 288°
2026-05-06 09:13 -17.90144 178.15198 8075 ft 121 kts 288°
2026-05-06 09:13 -17.89889 178.14388 8075 ft 121 kts 288°
2026-05-06 09:13 -17.89710 178.13821 8075 ft 121 kts 288°
2026-05-06 09:14 -17.89451 178.12997 8075 ft 121 kts 288°
2026-05-06 09:14 -17.89188 178.12161 8075 ft 121 kts 288°
2026-05-06 09:14 -17.88926 178.11328 8075 ft 121 kts 288°
2026-05-06 09:14 -17.88575 178.10213 8075 ft 121 kts 288°
2026-05-06 09:15 -17.88402 178.09662 8075 ft 121 kts 288°
2026-05-06 09:15 -17.88141 178.08832 8075 ft 121 kts 288°
2026-05-06 09:15 -17.87793 178.07721 8075 ft 121 kts 288°
2026-05-06 09:15 -17.87532 178.06891 8075 ft 121 kts 288°
2026-05-06 09:16 -17.87273 178.06064 8075 ft 121 kts 288°
2026-05-06 09:16 -17.87107 178.05534 8075 ft 121 kts 288°
2026-05-06 09:16 -17.86866 178.04767 8075 ft 121 kts 288°
2026-05-06 09:17 -17.86035 178.02112 8075 ft 121 kts 288°
2026-05-06 09:17 -17.85760 178.01273 8075 ft 121 kts 290°
2026-05-06 09:17 -17.85472 178.00449 8075 ft 121 kts 290°
2026-05-06 09:18 -17.85177 177.99605 8075 ft 123 kts 290°
2026-05-06 09:18 -17.84885 177.98770 8075 ft 123 kts 290°
2026-05-06 09:18 -17.84588 177.97920 8075 ft 123 kts 290°
2026-05-06 09:18 -17.84293 177.97075 8075 ft 123 kts 290°
2026-05-06 09:19 -17.83998 177.96230 8075 ft 123 kts 289°
2026-05-06 09:19 -17.83723 177.95373 8075 ft 124 kts 288°
2026-05-06 09:19 -17.83455 177.94513 8075 ft 124 kts 288°
2026-05-06 09:19 -17.83191 177.93668 8075 ft 124 kts 288°
2026-05-06 09:20 -17.82925 177.92812 8075 ft 124 kts 288°
2026-05-06 09:20 -17.82657 177.91950 8075 ft 124 kts 288°
2026-05-06 09:20 -17.82394 177.91103 8075 ft 124 kts 288°
2026-05-06 09:20 -17.82124 177.90242 8075 ft 124 kts 289°
2026-05-06 09:21 -17.81834 177.89398 8075 ft 124 kts 290°
2026-05-06 09:21 -17.81547 177.88542 8075 ft 124 kts 288°
2026-05-06 09:21 -17.81274 177.87697 8075 ft 124 kts 289°
2026-05-06 09:21 -17.80995 177.86847 8075 ft 124 kts 289°
2026-05-06 09:22 -17.80704 177.85989 8075 ft 124 kts 290°
2026-05-06 09:22 -17.80412 177.85146 8075 ft 124 kts 290°
2026-05-06 09:22 -17.80125 177.84294 8075 ft 124 kts 289°
2026-05-06 09:22 -17.79850 177.83455 8075 ft 124 kts 289°
2026-05-06 09:23 -17.79572 177.82611 8073 ft 118 kts 289°
2026-05-06 09:23 -17.79318 177.81839 7968 ft 110 kts 289°
2026-05-06 09:23 -17.79081 177.81088 7842 ft 108 kts 288°
2026-05-06 09:23 -17.78850 177.80342 7716 ft 106 kts 288°
2026-05-06 09:24 -17.78621 177.79602 7590 ft 106 kts 288°
2026-05-06 09:24 -17.78394 177.78868 7464 ft 105 kts 288°
2026-05-06 09:24 -17.78165 177.78126 7338 ft 105 kts 288°
2026-05-06 09:24 -17.77940 177.77399 7213 ft 105 kts 288°
2026-05-06 09:25 -17.77712 177.76657 7087 ft 105 kts 288°
2026-05-06 09:25 -17.77479 177.75932 6964 ft 107 kts 289°
2026-05-06 09:25 -17.77226 177.75197 6841 ft 109 kts 290°
2026-05-06 09:25 -17.76967 177.74446 6717 ft 109 kts 290°
2026-05-06 09:26 -17.76710 177.73703 6593 ft 110 kts 290°
2026-05-06 09:26 -17.76450 177.72949 6469 ft 110 kts 290°
2026-05-06 09:26 -17.76189 177.72197 6345 ft 110 kts 290°
2026-05-06 09:26 -17.75929 177.71442 6220 ft 110 kts 290°
2026-05-06 09:27 -17.75667 177.70683 6095 ft 110 kts 290°
2026-05-06 09:27 -17.75406 177.69922 6068 ft 114 kts 289°
2026-05-06 09:27 -17.75140 177.69133 6073 ft 120 kts 288°
2026-05-06 09:27 -17.74869 177.68301 6073 ft 122 kts 288°
2026-05-06 09:28 -17.74686 177.67729 6072 ft 123 kts 288°
2026-05-06 09:28 -17.74339 177.66602 6072 ft 124 kts 287°
2026-05-06 09:28 -17.74076 177.65744 6072 ft 124 kts 287°
2026-05-06 09:28 -17.73812 177.64882 6072 ft 124 kts 287°
2026-05-06 09:29 -17.73552 177.64031 6072 ft 124 kts 287°
2026-05-06 09:29 -17.73291 177.63179 6072 ft 124 kts 287°
2026-05-06 09:29 -17.73026 177.62314 6072 ft 124 kts 287°
2026-05-06 09:29 -17.72745 177.61467 6072 ft 124 kts 289°
2026-05-06 09:30 -17.72456 177.60622 6072 ft 124 kts 289°
2026-05-06 09:30 -17.72167 177.59778 6072 ft 124 kts 289°
2026-05-06 09:30 -17.71880 177.58939 6072 ft 124 kts 289°
2026-05-06 09:30 -17.71596 177.58112 6072 ft 124 kts 289°
2026-05-06 09:31 -17.71293 177.57262 6072 ft 124 kts 290°
2026-05-06 09:31 -17.70986 177.56409 6072 ft 124 kts 290°
2026-05-06 09:31 -17.70680 177.55562 6072 ft 124 kts 290°
2026-05-06 09:31 -17.70379 177.54726 6072 ft 124 kts 290°
2026-05-06 09:32 -17.70070 177.53871 6072 ft 124 kts 290°
2026-05-06 09:32 -17.69787 177.53055 6067 ft 112 kts 289°
2026-05-06 09:32 -17.69553 177.52331 6067 ft 100 kts 288°
2026-05-06 09:32 -17.69339 177.51668 6069 ft 94 kts 288°
2026-05-06 09:33 -17.69127 177.51006 6073 ft 97 kts 287°
2026-05-06 09:33 -17.68927 177.50316 6073 ft 98 kts 286°
2026-05-06 09:33 -17.68729 177.49622 6072 ft 99 kts 286°
2026-05-06 09:33 -17.68529 177.48932 6072 ft 100 kts 288°
2026-05-06 09:34 -17.68303 177.48233 6072 ft 100 kts 289°
2026-05-06 09:34 -17.68069 177.47540 6072 ft 100 kts 289°
2026-05-06 09:34 -17.67837 177.46852 6072 ft 101 kts 288°
2026-05-06 09:34 -17.67611 177.46150 6072 ft 101 kts 288°
2026-05-06 09:35 -17.67391 177.45450 6072 ft 101 kts 287°
2026-05-06 09:35 -17.67181 177.44757 6072 ft 101 kts 287°
2026-05-06 09:35 -17.66969 177.44057 6072 ft 101 kts 287°
2026-05-06 09:35 -17.66756 177.43352 6072 ft 101 kts 287°
2026-05-06 09:36 -17.66544 177.42648 6072 ft 101 kts 287°
2026-05-06 09:36 -17.66326 177.41950 6072 ft 101 kts 289°
2026-05-06 09:36 -17.66094 177.41261 6072 ft 101 kts 289°
2026-05-06 09:36 -17.65855 177.40567 6072 ft 101 kts 290°
2026-05-06 09:37 -17.65609 177.39876 6072 ft 101 kts 290°
2026-05-06 09:37 -17.65338 177.39197 6068 ft 101 kts 303°
2026-05-06 09:37 -17.64764 177.38800 6068 ft 101 kts 347°
2026-05-06 09:37 -17.64097 177.38917 6069 ft 100 kts 30°
2026-05-06 09:38 -17.63549 177.39371 6072 ft 100 kts 41°
2026-05-06 09:38 -17.63018 177.39853 6072 ft 100 kts 39°
2026-05-06 09:38 -17.62477 177.40321 6072 ft 100 kts 39°
2026-05-06 09:38 -17.61938 177.40787 6072 ft 101 kts 39°
2026-05-06 09:39 -17.61390 177.41260 6072 ft 101 kts 39°
2026-05-06 09:39 -17.60848 177.41728 6072 ft 101 kts 39°
2026-05-06 09:39 -17.60313 177.42189 6072 ft 101 kts 39°
2026-05-06 09:39 -17.59766 177.42660 6072 ft 101 kts 39°
2026-05-06 09:40 -17.59237 177.43137 6069 ft 101 kts 47°
2026-05-06 09:40 -17.59009 177.43823 6068 ft 101 kts 92°
2026-05-06 09:40 -17.59915 177.44753 6068 ft 100 kts 178°
2026-05-06 09:41 -17.60561 177.44514 6070 ft 100 kts 216°
2026-05-06 09:41 -17.61093 177.44046 6072 ft 100 kts 221°
2026-05-06 09:41 -17.61614 177.43559 6072 ft 100 kts 219°
2026-05-06 09:41 -17.62073 177.43008 6071 ft 100 kts 240°
2026-05-06 09:42 -17.62372 177.42346 6072 ft 100 kts 248°
2026-05-06 09:42 -17.62702 177.41705 6072 ft 100 kts 229°
2026-05-06 09:42 -17.63196 177.41185 6073 ft 100 kts 220°
2026-05-06 09:42 -17.63765 177.40762 6084 ft 100 kts 212°
2026-05-06 09:43 -17.64354 177.40367 6064 ft 102 kts 213°
2026-05-06 09:43 -17.64925 177.39941 6085 ft 100 kts 216°
2026-05-06 09:43 -17.65474 177.39479 6091 ft 100 kts 219°
2026-05-06 09:43 -17.65980 177.38989 6087 ft 101 kts 231°
2026-05-06 09:44 -17.66192 177.38303 6083 ft 101 kts 273°
2026-05-06 09:44 -17.65900 177.37654 6083 ft 100 kts 316°
2026-05-06 09:44 -17.65258 177.37390 6083 ft 100 kts 360°
2026-05-06 09:44 -17.64627 177.37640 6086 ft 100 kts 36°
2026-05-06 09:45 -17.64086 177.38119 6087 ft 100 kts 41°
2026-05-06 09:45 -17.63564 177.38603 6087 ft 100 kts 41°
2026-05-06 09:45 -17.63041 177.39090 6087 ft 101 kts 41°
2026-05-06 09:45 -17.62494 177.39560 6085 ft 101 kts 27°
2026-05-06 09:46 -17.61820 177.39705 6087 ft 100 kts 359°
2026-05-06 09:46 -17.61116 177.39662 6087 ft 100 kts 355°
2026-05-06 09:46 -17.60425 177.39612 6087 ft 101 kts 356°
2026-05-06 09:46 -17.59718 177.39581 6087 ft 101 kts 358°
2026-05-06 09:47 -17.59017 177.39572 6087 ft 101 kts 359°
2026-05-06 09:47 -17.58318 177.39571 6087 ft 101 kts 360°
2026-05-06 09:47 -17.57621 177.39577 6087 ft 101 kts
2026-05-06 09:47 -17.56911 177.39595 6087 ft 101 kts
2026-05-06 09:48 -17.56213 177.39613 6087 ft 101 kts
2026-05-06 09:48 -17.55515 177.39633 6087 ft 101 kts
2026-05-06 09:48 -17.54815 177.39662 6087 ft 101 kts
2026-05-06 09:48 -17.54111 177.39694 6087 ft 101 kts
2026-05-06 09:49 -17.53410 177.39725 6087 ft 101 kts
2026-05-06 09:49 -17.52713 177.39755 6087 ft 101 kts
2026-05-06 09:49 -17.52010 177.39777 6087 ft 101 kts
2026-05-06 09:49 -17.51309 177.39793 6087 ft 101 kts
2026-05-06 09:50 -17.50607 177.39800 6087 ft 101 kts 360°
2026-05-06 09:50 -17.49906 177.39798 6087 ft 101 kts 359°
2026-05-06 09:50 -17.49207 177.39790 6087 ft 101 kts 359°
2026-05-06 09:50 -17.48497 177.39781 6087 ft 101 kts 359°
2026-05-06 09:51 -17.47800 177.39774 6087 ft 101 kts 359°
2026-05-06 09:51 -17.47095 177.39764 6087 ft 101 kts 359°
2026-05-06 09:51 -17.46395 177.39761 6086 ft 101 kts
2026-05-06 09:51 -17.45789 177.40079 6083 ft 101 kts 47°
2026-05-06 09:52 -17.45548 177.40758 6085 ft 100 kts 88°
2026-05-06 09:52 -17.45631 177.41486 6087 ft 100 kts 102°
2026-05-06 09:52 -17.45751 177.42201 6087 ft 100 kts 94°
2026-05-06 09:52 -17.45812 177.42938 6051 ft 104 kts 95°
2026-05-06 09:53 -17.45878 177.43732 5931 ft 112 kts 95°
2026-05-06 09:53 -17.45947 177.44562 5807 ft 115 kts 95°
2026-05-06 09:53 -17.46017 177.45410 5682 ft 116 kts 95°
2026-05-06 09:53 -17.46084 177.46210 5553 ft 107 kts 95°
2026-05-06 09:54 -17.46179 177.46970 5423 ft 102 kts 103°
2026-05-06 09:54 -17.46373 177.47675 5297 ft 101 kts 109°
2026-05-06 09:54 -17.46683 177.48328 5171 ft 100 kts 118°
2026-05-06 09:54 -17.47024 177.48965 5045 ft 99 kts 119°
2026-05-06 09:55 -17.47362 177.49593 4918 ft 98 kts 119°
2026-05-06 09:55 -17.47694 177.50207 4793 ft 97 kts 119°
2026-05-06 09:55 -17.48028 177.50829 4667 ft 97 kts 119°
2026-05-06 09:55 -17.48365 177.51454 4548 ft 104 kts 119°
2026-05-06 09:56 -17.48788 177.52104 4420 ft 110 kts 139°
2026-05-06 09:56 -17.49499 177.52351 4291 ft 112 kts 182°
2026-05-06 09:56 -17.50216 177.52055 4192 ft 111 kts 212°
2026-05-06 09:56 -17.50841 177.51599 4116 ft 109 kts 215°
2026-05-06 09:57 -17.51463 177.51128 4039 ft 108 kts 216°
2026-05-06 09:57 -17.52014 177.50708 3970 ft 91 kts 216°
2026-05-06 09:57 -17.52505 177.50325 3891 ft 86 kts 216°
2026-05-06 09:57 -17.52976 177.49954 3813 ft 84 kts 216°
2026-05-06 09:58 -17.53432 177.49588 3737 ft 82 kts 218°
2026-05-06 09:58 -17.53881 177.49210 3661 ft 82 kts 218°
2026-05-06 09:58 -17.54324 177.48836 3585 ft 81 kts 218°
2026-05-06 09:58 -17.54764 177.48463 3510 ft 81 kts 218°
2026-05-06 09:59 -17.55205 177.48090 3435 ft 81 kts 218°
2026-05-06 09:59 -17.55636 177.47725 3438 ft 81 kts 218°
2026-05-06 09:59 -17.56092 177.47337 3400 ft 87 kts 219°
2026-05-06 09:59 -17.56566 177.46922 3353 ft 90 kts 219°
2026-05-06 10:00 -17.57051 177.46498 3305 ft 92 kts 219°
2026-05-06 10:00 -17.57539 177.46069 3256 ft 93 kts 219°
2026-05-06 10:00 -17.58036 177.45633 3206 ft 93 kts 219°
2026-05-06 10:00 -17.58550 177.45183 3101 ft 98 kts 219°
2026-05-06 10:01 -17.59071 177.44727 3041 ft 95 kts 219°
2026-05-06 10:01 -17.59561 177.44296 3036 ft 90 kts 219°
2026-05-06 10:01 -17.60038 177.43878 3034 ft 88 kts 219°
2026-05-06 10:01 -17.60511 177.43465 3033 ft 87 kts 219°
2026-05-06 10:02 -17.60977 177.43065 3028 ft 87 kts 217°
2026-05-06 10:02 -17.61481 177.42665 2962 ft 92 kts 216°
2026-05-06 10:02 -17.62002 177.42258 2890 ft 95 kts 216°
2026-05-06 10:02 -17.62541 177.41853 2816 ft 96 kts 213°
2026-05-06 10:03 -17.63115 177.41476 2734 ft 97 kts 211°
2026-05-06 10:03 -17.63686 177.41067 2609 ft 101 kts 219°
2026-05-06 10:03 -17.64242 177.40622 2486 ft 102 kts 218°
2026-05-06 10:03 -17.64801 177.40161 2361 ft 102 kts 218°
2026-05-06 10:04 -17.65366 177.39694 2235 ft 103 kts 218°
2026-05-06 10:04 -17.65925 177.39233 2111 ft 103 kts 218°
2026-05-06 10:04 -17.66486 177.38770 1986 ft 103 kts 218°
2026-05-06 10:04 -17.67049 177.38306 1862 ft 103 kts 218°
2026-05-06 10:05 -17.67616 177.37839 1736 ft 103 kts 218°
2026-05-06 10:05 -17.68175 177.37378 1611 ft 103 kts 218°
2026-05-06 10:05 -17.68737 177.36912 1486 ft 103 kts 218°
2026-05-06 10:05 -17.69303 177.36447 1361 ft 103 kts 218°
2026-05-06 10:06 -17.69864 177.35980 1235 ft 103 kts 219°
2026-05-06 10:06 -17.70413 177.35501 1111 ft 103 kts 219°
2026-05-06 10:06 -17.70977 177.35030 985 ft 103 kts 218°
2026-05-06 10:06 -17.71530 177.34575 1060 ft 99 kts 218°
2026-05-06 10:07 -17.72086 177.34117 1220 ft 103 kts 218°
2026-05-06 10:07 -17.72658 177.33649 1396 ft 105 kts 218°
2026-05-06 10:07 -17.73242 177.33171 1573 ft 106 kts 218°
2026-05-06 10:07 -17.73820 177.32698 1747 ft 106 kts 218°
2026-05-06 10:08 -17.74397 177.32225 1920 ft 106 kts 218°
2026-05-06 10:08 -17.74985 177.31743 2097 ft 106 kts 218°
2026-05-06 10:08 -17.75558 177.31273 2270 ft 106 kts 218°
2026-05-06 10:08 -17.76142 177.30795 2446 ft 105 kts 218°
2026-05-06 10:09 -17.76714 177.30327 2620 ft 105 kts 218°
2026-05-06 10:09 -17.77296 177.29851 2796 ft 105 kts 218°
2026-05-06 10:09 -17.77861 177.29388 2968 ft 104 kts 218°
2026-05-06 10:09 -17.78444 177.28912 3073 ft 111 kts 218°
2026-05-06 10:10 -17.79086 177.28386 3055 ft 120 kts 218°
2026-05-06 10:10 -17.79760 177.27834 3052 ft 123 kts 218°
2026-05-06 10:10 -17.80439 177.27278 3050 ft 124 kts 218°
2026-05-06 10:10 -17.81118 177.26721 3050 ft 124 kts 218°
2026-05-06 10:11 -17.81797 177.26164 3050 ft 124 kts 218°
2026-05-06 10:11 -17.82482 177.25603 3050 ft 124 kts 218°
2026-05-06 10:11 -17.83162 177.25044 3050 ft 124 kts 218°
2026-05-06 10:11 -17.83837 177.24490 3050 ft 124 kts 218°
2026-05-06 10:12 -17.84519 177.23932 3050 ft 124 kts 218°
2026-05-06 10:12 -17.85202 177.23372 3050 ft 124 kts 218°
2026-05-06 10:12 -17.85884 177.22813 3050 ft 124 kts 218°
2026-05-06 10:12 -17.86568 177.22253 3050 ft 124 kts 218°
2026-05-06 10:13 -17.87248 177.21689 3050 ft 124 kts 219°
2026-05-06 10:13 -17.87912 177.21127 3048 ft 118 kts 218°
2026-05-06 10:13 -17.88383 177.20897 3041 ft 109 kts 189°
2026-05-06 10:13 -17.89245 177.21228 3047 ft 99 kts 133°
2026-05-06 10:14 -17.89660 177.21794 3049 ft 95 kts 126°
2026-05-06 10:14 -17.90050 177.22347 3049 ft 94 kts 127°
2026-05-06 10:14 -17.90313 177.22716 3050 ft 93 kts 127°
2026-05-06 10:14 -17.90829 177.23441 3050 ft 92 kts 127°
2026-05-06 10:15 -17.91217 177.23985 3050 ft 92 kts 127°
2026-05-06 10:15 -17.91602 177.24527 3050 ft 92 kts 127°
2026-05-06 10:15 -17.91983 177.25063 3050 ft 92 kts 127°
2026-05-06 10:15 -17.92370 177.25601 3050 ft 92 kts 127°
2026-05-06 10:16 -17.92758 177.26137 3049 ft 92 kts 123°
2026-05-06 10:16 -17.92905 177.26775 3051 ft 91 kts 88°
2026-05-06 10:16 -17.92844 177.27446 3050 ft 92 kts 82°
2026-05-06 10:16 -17.92755 177.28105 3050 ft 92 kts 82°
2026-05-06 10:17 -17.92667 177.28773 3050 ft 92 kts 82°
2026-05-06 10:17 -17.92578 177.29443 3050 ft 92 kts 82°
2026-05-06 10:17 -17.92386 177.30072 3048 ft 92 kts 59°
2026-05-06 10:17 -17.92008 177.30640 3021 ft 95 kts 50°
2026-05-06 10:18 -17.91561 177.31158 2991 ft 97 kts 44°
2026-05-06 10:18 -17.91066 177.31648 2982 ft 96 kts 42°
2026-05-06 10:18 -17.90572 177.32118 2989 ft 94 kts 41°
2026-05-06 10:18 -17.90075 177.32561 2995 ft 93 kts 40°
2026-05-06 10:19 -17.89585 177.32989 2970 ft 87 kts 38°
2026-05-06 10:19 -17.89146 177.33357 2950 ft 76 kts 38°
2026-05-06 10:19 -17.88724 177.33702 2899 ft 77 kts 38°
2026-05-06 10:19 -17.88309 177.34061 2850 ft 78 kts 39°
2026-05-06 10:20 -17.87887 177.34428 2784 ft 80 kts 40°
2026-05-06 10:20 -17.87448 177.34816 2703 ft 83 kts 39°
2026-05-06 10:20 -17.86990 177.35196 2599 ft 86 kts 36°
2026-05-06 10:20 -17.86502 177.35556 2463 ft 84 kts 34°
2026-05-06 10:21 -17.86021 177.35908 2297 ft 85 kts 36°
2026-05-06 10:21 -17.85539 177.36287 2138 ft 87 kts 37°
2026-05-06 10:21 -17.85059 177.36671 1999 ft 85 kts 38°
2026-05-06 10:21 -17.84598 177.37058 1886 ft 83 kts 39°
2026-05-06 10:22 -17.84142 177.37430 1774 ft 84 kts 37°
2026-05-06 10:22 -17.83658 177.37799 1660 ft 84 kts 36°
2026-05-06 10:22 -17.83188 177.38159 1561 ft 84 kts 36°
2026-05-06 10:22 -17.82716 177.38538 1442 ft 85 kts 38°
2026-05-06 10:23 -17.82264 177.38907 1324 ft 86 kts 37°
2026-05-06 10:23 -17.81975 177.39139 1236 ft 87 kts 38°
2026-05-06 10:23 -17.81493 177.39537 1114 ft 86 kts 38°
2026-05-06 10:24 -17.81043 177.39912 1019 ft 79 kts 38°
2026-05-06 10:24 -17.80616 177.40263 906 ft 76 kts 37°
2026-05-06 10:24 -17.80189 177.40601 785 ft 78 kts 36°
2026-05-06 10:24 -17.79771 177.40927 679 ft 71 kts 37°
2026-05-06 10:25 -17.79384 177.41232 593 ft 69 kts 36°
2026-05-06 10:25 -17.78992 177.41544 504 ft 71 kts 37°
2026-05-06 10:25 -17.78593 177.41864 412 ft 71 kts 38°
2026-05-06 10:25 -17.78221 177.42165 312 ft 65 kts 37°
2026-05-06 10:26 -17.77844 177.42461 224 ft 67 kts 36°
2026-05-06 10:26 -17.77473 177.42758 128 ft 67 kts 36°
2026-05-06 10:26 -17.77116 177.43042 52 ft 60 kts 37°
2026-05-06 10:26 -17.76813 177.43285 36 ft 48 kts 39°
2026-05-06 10:27 -17.76599 177.43460 37 ft 30 kts 40°
2026-05-06 10:27 -17.76598 177.43460 37 ft 30 kts 39°